星链-34575 (STARLINK-34575)

导读 | 豆包AI

STARLINK-34575是美国SpaceX公司星链(Starlink)互联网星座的低轨通信卫星,于2025年7月19日由美国发射入轨。它属于星链卫星互联网项目的组网卫星,运行在近地轨道,采用Ku/Ka波段通信与光学星间链路技术,配备氪工质霍尔推进器,具备自主避撞能力。其核心任务是为全球提供高速低延迟宽带互联网服务,尤其覆盖偏远与基础设施薄弱地区,是星链大规模星座组网的重要组成部分,助力实现全球全域互联目标。

Basic Information
目录编号:
64859
目录名称:
STARLINK-34575
国际标识:
2025-152T
轨道中心:
EARTH
卫星名称:
星链-34575
卫星全名:
星链-34575 (STARLINK-34575)
卫星状态:
在轨 (已飞行284 天)
发射日期:
2025-07-19 UTC
国别 :
美国 (US)
星等 :
--
Orbit Information
数据来源 国际轨道数据 AOE轨道数据
星历时间 2026-04-29T11:17:41+0800
11小时前
查看轨道信息
2026-04-23T23:00:00+0800
5天前
查看轨道信息
半长轴 6927.632km 6927.6km
偏心率 0.0001967 0.0002007
轨道倾角 97.561° 97.585°
近地点辐角 71.588° 75.657°
升交点赤经 335.279° 329.871°
平近点角 288.556° 305.000°
近地点 548.132km 548.072km
远地点 550.858km 550.854km
周期 95.639分钟 95.639分钟
每日圈数 15.056555 15.05666
Detailed Information
固有亮度:
5
最大亮度:
2.5
卫星平台:
Starlink V1.0
覆盖范围:
全球
运营商:
太空探索技术公司
运营商所在国:
美国
制造商(研发单位):
太空探索技术公司
制造商所在国:
美国
使用方式:
暂无
Satellite Introduction
Starlink 计划是 SpaceX 推出的全球卫星互联网项目,通过发射低轨道卫星,为全球尤其是偏远地区提供高速、低延迟的互联网服务。自 2019 年起,Starlink 已部署数千颗卫星,旨在缩小全球数字鸿沟,推动互联网普及。该项目还为军事、航空等行业提供通信支持,带来广泛经济效益。
2D Orbit Map
3D Orbit Map
Orbit Altitude Analysis Chart
Orbit Inclination Analysis Chart
Orbit Comprehensive Analysis Chart
View Comprehensive Chart